Content
SEND FEEDBACK

Daily
Averages
Monthly
Summary
United States of America

UKIAH, CALIFORNIA


Home > North America > United States > California
Elevation: 615 feet     Latitude: 39 08N     Longitude: 123 12W

WEATHER
 
SELECT A DAY
Number of Records: 216,945;   Date Range: 1/1/95 - 7/23/14
 
SHARE

PRINT THIS DATA

[ ← Previous Day ]
WEATHER ALMANAC - JULY 18, 2013
[ Next Day → ]
[ °C ]   °F
Weather ElementAverageHighLow
Temperature76.7 °F98.1 °F (2:56 pm)54 °F (4:56 am)
Dewpoint46.7 °F54 °F (11:56 pm)34 °F (1:56 pm)
Humidity42 %77 % (4:56 am)11 % (1:56 pm)
Barometer29.96 in30.03 in (6:56 am)29.89 in (5:56 pm)
Wind Speed2.3 mph11.5 mph (2:56 pm)
Wind Gust19.6 mph (2:56 pm)
Weather ElementAverage
Visibility10 mi
Wind DirectionENE (76.1 °)

Weather ElementTotal
Precipitation---
Cooling Degree Days11.1 (Base 65)
Growing Degree Days26.1 (Base 50)
Averaged from 23 records on July 18, 2013
WEATHER CONDITIONS BREAKOUT
WIND DIRECTION BREAKOUT
WEATHER BY HOUR - JULY 18, 2013
[ °C ]   °F
Local TimeTemperatureDewpointHumidityBarometerVisibilityWind DirectionWind SpeedGust SpeedPrecipitationEventsConditions
1:56 AM60.1 °F48.0 °F64 %30.02 in10.0 miCalmClear
2:56 AM57.0 °F48.0 °F72 %30.01 in10.0 miCalmClear
3:56 AM57.0 °F48.0 °F72 %30.01 in10.0 miCalmClear
4:56 AM54.0 °F46.9 °F77 %30.01 in10.0 miCalmClear
5:56 AM54.0 °F46.0 °F75 %30.02 in10.0 miCalmClear
6:56 AM57.0 °F48.0 °F72 %30.03 in10.0 miCalmClear
7:56 AM61.0 °F46.9 °F60 %30.03 in10.0 miCalmClear
8:56 AM66.9 °F50.0 °F54 %30.03 in10.0 miCalmClear
9:56 AM73.9 °F50.0 °F43 %30.01 in10.0 miCalmClear
10:56 AM80.1 °F50.0 °F35 %29.99 in10.0 miCalmClear
11:56 AM88.0 °F48.9 °F26 %29.98 in10.0 miCalmClear
12:56 PM93.0 °F45.0 °F19 %29.96 in10.0 miESE (120°)3.5 mphClear
1:56 PM97.0 °F34.0 °F11 %29.94 in10.0 miEast (100°)5.8 mphClear
2:56 PM98.1 °F50.0 °F20 %29.91 in10.0 miNNW (330°)11.5 mph19.6 mphClear
3:56 PM98.1 °F46.0 °F17 %29.91 in10.0 miWest (270°)9.2 mphClear
4:56 PM97.0 °F39.9 °F14 %29.90 in10.0 miWNW (290°)8.1 mphClear
5:56 PM95.0 °F37.9 °F14 %29.89 in10.0 miWest (280°)9.2 mphClear
6:56 PM91.9 °F37.0 °F15 %29.89 in10.0 miCalmClear
7:56 PM87.1 °F46.9 °F25 %29.90 in10.0 miNorth (360°)5.8 mphClear
8:56 PM80.1 °F51.1 °F36 %29.90 in10.0 miCalmClear
9:56 PM75.9 °F48.9 °F38 %29.91 in10.0 miCalmClear
10:56 PM72.0 °F52.0 °F49 %29.91 in10.0 miCalmClear
11:56 PM69.1 °F54.0 °F58 %29.91 in10.0 miCalmClear
Hourly data recorded from KUKI, located miles away from Ukiah, California







STORIES FROM OUR PARTNERS